Time,TemperatureF,DewpointF,PressureIn,WindDirection,WindDirectionDegrees,WindSpeedMPH,WindSpeedGustMPH,Humidity,HourlyPrecipIn,Conditions,Clouds,dailyrainin,SoftwareType,DateUTC
2013-06-16 00:01:00,73.0,70.0,29.83,SW,217,0.0,0.0,89,0.02,,,0.08,,2013-06-16 05:01:00,
2013-06-16 00:12:00,73.0,69.0,29.83,South,185,0.0,0.0,88,0.02,,,0.08,,2013-06-16 05:12:00,
2013-06-16 00:22:00,73.0,68.0,29.84,SW,222,0.0,0.0,85,0.02,,,0.08,,2013-06-16 05:22:00,
2013-06-16 00:34:00,73.0,67.0,29.84,South,189,0.0,0.0,82,0.02,,,0.08,,2013-06-16 05:34:00,
2013-06-16 00:43:00,73.0,67.0,29.85,South,191,0.0,0.0,81,0.01,,,0.08,,2013-06-16 05:43:00,
2013-06-16 00:52:00,72.0,66.0,29.85,SW,229,0.0,0.0,81,0.01,,,0.08,,2013-06-16 05:52:00,
2013-06-16 01:01:00,72.0,66.0,29.85,SSW,192,0.0,0.0,81,0.00,,,0.08,,2013-06-16 06:01:00,
2013-06-16 01:11:00,72.0,65.0,29.86,SW,219,0.0,0.0,80,0.00,,,0.08,,2013-06-16 06:11:00,
2013-06-16 01:22:00,72.0,66.0,29.86,WSW,240,0.0,0.0,81,0.00,,,0.08,,2013-06-16 06:22:00,
2013-06-16 01:33:00,72.0,66.0,29.86,SSE,164,0.0,0.0,81,0.00,,,0.08,,2013-06-16 06:33:00,
2013-06-16 01:43:00,71.0,65.0,29.85,SSE,147,0.0,0.0,82,0.00,,,0.08,,2013-06-16 06:43:00,
2013-06-16 01:52:00,71.0,66.0,29.85,South,188,0.0,0.0,83,0.00,,,0.08,,2013-06-16 06:52:00,
2013-06-16 02:01:00,71.0,66.0,29.85,WSW,252,0.0,0.0,83,0.00,,,0.08,,2013-06-16 07:01:00,
2013-06-16 02:11:00,71.0,66.0,29.84,WSW,243,0.0,0.0,84,0.00,,,0.08,,2013-06-16 07:11:00,
2013-06-16 02:22:00,71.0,66.0,29.84,South,184,0.0,0.0,85,0.00,,,0.08,,2013-06-16 07:22:00,
2013-06-16 02:33:00,70.0,65.0,29.83,WSW,246,0.0,0.0,85,0.00,,,0.08,,2013-06-16 07:33:00,
2013-06-16 02:43:00,70.0,65.0,29.83,WSW,246,0.0,0.0,85,0.00,,,0.08,,2013-06-16 07:43:00,
2013-06-16 02:53:00,70.0,65.0,29.83,SW,220,0.0,0.0,85,0.00,,,0.08,,2013-06-16 07:53:00,
2013-06-16 03:02:00,70.0,65.0,29.83,SW,220,0.0,0.0,85,0.00,,,0.08,,2013-06-16 08:02:00,
2013-06-16 03:12:00,70.0,65.0,29.83,SW,221,0.0,0.0,85,0.00,,,0.08,,2013-06-16 08:12:00,
2013-06-16 03:22:00,70.0,65.0,29.83,North,10,0.0,0.0,85,0.00,,,0.08,,2013-06-16 08:22:00,
2013-06-16 03:33:00,69.0,64.0,29.83,North,10,0.0,0.0,85,0.00,,,0.08,,2013-06-16 08:33:00,
2013-06-16 03:43:00,69.0,64.0,29.83,North,5,0.0,0.0,85,0.01,,,0.09,,2013-06-16 08:43:00,
2013-06-16 03:54:00,69.0,64.0,29.83,North,5,0.0,0.0,85,0.01,,,0.09,,2013-06-16 08:54:00,
2013-06-16 04:02:00,69.0,64.0,29.83,North,5,0.0,0.0,85,0.01,,,0.09,,2013-06-16 09:02:00,
2013-06-16 04:11:00,69.0,64.0,29.84,North,5,0.0,0.0,85,0.01,,,0.09,,2013-06-16 09:11:00,
2013-06-16 04:22:00,69.0,65.0,29.84,North,5,0.0,0.0,86,0.01,,,0.09,,2013-06-16 09:22:00,
2013-06-16 04:33:00,69.0,65.0,29.83,North,5,0.0,0.0,86,0.01,,,0.09,,2013-06-16 09:33:00,
2013-06-16 04:43:00,69.0,65.0,29.83,North,5,0.0,0.0,86,0.00,,,0.09,,2013-06-16 09:43:00,
2013-06-16 04:52:00,69.0,65.0,29.84,North,5,0.0,0.0,86,0.01,,,0.10,,2013-06-16 09:52:00,
2013-06-16 05:01:00,69.0,65.0,29.84,North,5,0.0,0.0,87,0.01,,,0.10,,2013-06-16 10:01:00,
2013-06-16 05:12:00,68.0,64.0,29.84,North,5,0.0,0.0,87,0.01,,,0.10,,2013-06-16 10:12:00,
2013-06-16 05:22:00,68.0,64.0,29.84,North,5,0.0,0.0,88,0.01,,,0.10,,2013-06-16 10:22:00,
2013-06-16 05:33:00,68.0,64.0,29.85,North,5,0.0,0.0,88,0.01,,,0.10,,2013-06-16 10:33:00,
2013-06-16 05:43:00,67.0,64.0,29.85,North,5,0.0,0.0,89,0.01,,,0.10,,2013-06-16 10:43:00,
2013-06-16 05:53:00,67.0,64.0,29.85,North,5,0.0,0.0,90,0.00,,,0.10,,2013-06-16 10:53:00,
2013-06-16 06:02:00,67.0,64.0,29.85,North,5,0.0,0.0,90,0.00,,,0.10,,2013-06-16 11:02:00,
2013-06-16 06:11:00,67.0,64.0,29.85,North,5,0.0,0.0,91,0.00,,,0.10,,2013-06-16 11:11:00,
2013-06-16 06:22:00,67.0,64.0,29.85,North,5,0.0,0.0,91,0.00,,,0.10,,2013-06-16 11:22:00,
2013-06-16 06:34:00,67.0,65.0,29.86,North,5,0.0,0.0,92,0.00,,,0.10,,2013-06-16 11:34:00,
2013-06-16 06:43:00,67.0,65.0,29.86,North,5,0.0,0.0,92,0.00,,,0.10,,2013-06-16 11:43:00,
2013-06-16 06:52:00,67.0,65.0,29.86,North,5,0.0,0.0,92,0.00,,,0.10,,2013-06-16 11:52:00,
2013-06-16 07:02:00,67.0,65.0,29.86,North,5,0.0,0.0,92,0.00,,,0.09,,2013-06-16 12:02:00,
2013-06-16 07:12:00,68.0,66.0,29.86,North,5,0.0,0.0,92,0.00,,,0.09,,2013-06-16 12:12:00,
2013-06-16 07:22:00,68.0,65.0,29.86,North,5,0.0,0.0,91,0.00,,,0.09,,2013-06-16 12:22:00,
2013-06-16 07:32:00,68.0,65.0,29.87,North,5,0.0,0.0,91,0.00,,,0.09,,2013-06-16 12:32:00,
2013-06-16 07:42:00,69.0,66.0,29.87,North,5,0.0,0.0,91,0.00,,,0.09,,2013-06-16 12:42:00,
2013-06-16 07:53:00,69.0,66.0,29.87,North,5,0.0,0.0,90,0.00,,,0.09,,2013-06-16 12:53:00,
2013-06-16 08:01:00,69.0,66.0,29.87,North,5,0.0,0.0,89,0.00,,,0.09,,2013-06-16 13:01:00,
2013-06-16 08:11:00,70.0,67.0,29.87,North,5,0.0,0.0,89,0.00,,,0.09,,2013-06-16 13:11:00,
2013-06-16 08:22:00,70.0,67.0,29.86,North,9,0.0,0.0,89,0.00,,,0.09,,2013-06-16 13:22:00,
2013-06-16 08:34:00,71.0,67.0,29.86,NNW,344,0.0,0.0,88,0.00,,,0.09,,2013-06-16 13:34:00,
2013-06-16 08:43:00,71.0,67.0,29.86,NNW,344,0.0,0.0,87,0.00,,,0.09,,2013-06-16 13:43:00,
2013-06-16 08:53:00,72.0,67.0,29.87,NNW,344,0.0,0.0,85,0.00,,,0.09,,2013-06-16 13:53:00,
2013-06-16 09:02:00,73.0,68.0,29.87,NNW,344,0.0,0.0,85,0.00,,,0.09,,2013-06-16 14:02:00,
2013-06-16 09:12:00,74.0,68.0,29.86,NNW,342,0.0,0.0,81,0.00,,,0.09,,2013-06-16 14:12:00,
2013-06-16 09:22:00,76.0,69.0,29.86,NNW,342,0.0,0.0,78,0.00,,,0.09,,2013-06-16 14:22:00,
2013-06-16 09:34:00,78.0,70.0,29.86,NNW,342,0.0,0.0,77,0.00,,,0.09,,2013-06-16 14:34:00,
2013-06-16 09:43:00,79.0,70.0,29.86,NNW,342,0.0,0.0,74,0.00,,,0.09,,2013-06-16 14:43:00,
2013-06-16 09:52:00,80.0,70.0,29.86,NNW,338,0.0,0.0,71,0.00,,,0.09,,2013-06-16 14:52:00,
2013-06-16 10:02:00,80.0,68.0,29.86,NNW,338,0.0,0.0,66,0.00,,,0.09,,2013-06-16 15:02:00,
2013-06-16 10:12:00,81.0,68.0,29.86,NNW,338,0.0,0.0,65,0.00,,,0.09,,2013-06-16 15:12:00,
2013-06-16 10:23:00,82.0,68.0,29.86,North,0,0.0,0.0,63,0.00,,,0.09,,2013-06-16 15:23:00,
2013-06-16 10:33:00,82.0,69.0,29.86,North,0,0.0,0.0,64,0.00,,,0.09,,2013-06-16 15:33:00,
2013-06-16 10:43:00,83.0,69.0,29.86,North,0,0.0,0.0,63,0.00,,,0.09,,2013-06-16 15:43:00,
2013-06-16 10:52:00,83.0,69.0,29.86,North,5,0.0,0.0,63,0.00,,,0.09,,2013-06-16 15:52:00,
2013-06-16 11:02:00,83.0,68.0,29.86,North,9,0.0,0.0,60,0.00,,,0.09,,2013-06-16 16:02:00,
2013-06-16 11:12:00,84.0,66.0,29.85,ENE,77,0.0,0.0,55,0.00,,,0.09,,2013-06-16 16:12:00,
2013-06-16 11:23:00,84.0,67.0,29.85,South,185,0.0,0.0,56,0.00,,,0.09,,2013-06-16 16:23:00,
2013-06-16 11:33:00,83.0,67.0,29.86,SSW,209,0.0,0.0,58,0.00,,,0.09,,2013-06-16 16:33:00,
2013-06-16 11:43:00,84.0,64.0,29.86,North,5,0.0,0.0,52,0.00,,,0.09,,2013-06-16 16:43:00,
2013-06-16 11:53:00,84.0,65.0,29.86,SSW,198,0.0,0.0,53,0.00,,,0.09,,2013-06-16 16:53:00,
2013-06-16 12:02:00,83.0,65.0,29.86,NNW,344,0.0,0.0,54,0.00,,,0.09,,2013-06-16 17:02:00,
2013-06-16 12:12:00,83.0,64.0,29.86,NW,325,0.0,0.0,52,0.00,,,0.09,,2013-06-16 17:12:00,
2013-06-16 12:22:00,84.0,64.0,29.86,North,350,0.0,0.0,52,0.00,,,0.09,,2013-06-16 17:22:00,
2013-06-16 12:34:00,86.0,62.0,29.86,NNW,347,0.0,0.0,44,0.00,,,0.09,,2013-06-16 17:34:00,
2013-06-16 12:43:00,87.0,64.0,29.86,North,6,0.0,0.0,46,0.00,,,0.09,,2013-06-16 17:43:00,
2013-06-16 12:53:00,87.0,62.0,29.86,North,355,0.0,0.0,43,0.00,,,0.09,,2013-06-16 17:53:00,
2013-06-16 13:02:00,88.0,63.0,29.86,North,10,0.0,0.0,43,0.00,,,0.08,,2013-06-16 18:02:00,
2013-06-16 13:12:00,88.0,63.0,29.86,North,5,0.0,0.0,44,0.00,,,0.07,,2013-06-16 18:12:00,
2013-06-16 13:22:00,86.0,63.0,29.86,SSW,201,0.0,0.0,47,0.00,,,0.07,,2013-06-16 18:22:00,
2013-06-16 13:33:00,86.0,63.0,29.85,North,351,0.0,0.0,46,0.00,,,0.07,,2013-06-16 18:33:00,
2013-06-16 13:43:00,87.0,62.0,29.86,North,5,0.0,0.0,44,0.00,,,0.07,,2013-06-16 18:43:00,
2013-06-16 14:01:00,86.0,62.0,29.86,South,191,0.0,0.0,45,0.00,,,0.06,,2013-06-16 19:01:00,
2013-06-16 14:11:00,86.0,62.0,29.86,South,183,0.0,0.0,44,0.00,,,0.06,,2013-06-16 19:11:00,
2013-06-16 14:22:00,85.0,61.0,29.85,South,189,0.0,0.0,44,0.00,,,0.05,,2013-06-16 19:22:00,
2013-06-16 14:34:00,85.0,61.0,29.85,South,190,0.0,0.0,45,0.00,,,0.05,,2013-06-16 19:34:00,
2013-06-16 14:43:00,86.0,62.0,29.85,WSW,237,0.0,0.0,45,0.00,,,0.05,,2013-06-16 19:43:00,
2013-06-16 14:53:00,87.0,59.0,29.85,North,0,0.0,0.0,39,0.00,,,0.05,,2013-06-16 19:53:00,
2013-06-16 15:02:00,89.0,61.0,29.85,South,180,0.0,0.0,39,0.00,,,0.05,,2013-06-16 20:02:00,
2013-06-16 15:11:00,89.0,61.0,29.85,East,86,0.0,0.0,40,0.00,,,0.05,,2013-06-16 20:11:00,
2013-06-16 15:22:00,88.0,61.0,29.85,WNW,285,0.0,0.0,41,0.00,,,0.05,,2013-06-16 20:22:00,
2013-06-16 15:33:00,87.0,58.0,29.85,NNW,342,0.0,0.0,38,0.00,,,0.05,,2013-06-16 20:33:00,
2013-06-16 15:42:00,87.0,59.0,29.85,SSW,202,0.0,0.0,39,0.00,,,0.05,,2013-06-16 20:42:00,
2013-06-16 15:53:00,87.0,55.0,29.85,NNW,343,0.0,0.0,34,0.00,,,0.05,,2013-06-16 20:53:00,
2013-06-16 16:02:00,87.0,56.0,29.85,SSW,198,0.0,0.0,35,0.00,,,0.05,,2013-06-16 21:02:00,
2013-06-16 16:11:00,86.0,59.0,29.85,SSW,208,0.0,0.0,40,0.00,,,0.05,,2013-06-16 21:11:00,
2013-06-16 16:22:00,86.0,57.0,29.85,North,0,0.0,0.0,38,0.00,,,0.05,,2013-06-16 21:22:00,
2013-06-16 16:32:00,86.0,57.0,29.84,North,352,0.0,0.0,38,0.00,,,0.05,,2013-06-16 21:32:00,
2013-06-16 16:42:00,86.0,58.0,29.85,North,351,0.0,0.0,39,0.00,,,0.04,,2013-06-16 21:42:00,
2013-06-16 16:53:00,86.0,60.0,29.85,North,0,0.0,0.0,41,0.00,,,0.04,,2013-06-16 21:53:00,
2013-06-16 17:01:00,86.0,58.0,29.84,NNW,344,0.0,0.0,39,0.00,,,0.04,,2013-06-16 22:01:00,
2013-06-16 17:12:00,86.0,57.0,29.84,North,349,0.0,0.0,38,0.00,,,0.04,,2013-06-16 22:12:00,
2013-06-16 17:22:00,86.0,56.0,29.84,North,0,0.0,0.0,36,0.00,,,0.04,,2013-06-16 22:22:00,
2013-06-16 17:32:00,86.0,56.0,29.84,North,355,0.0,0.0,36,0.00,,,0.04,,2013-06-16 22:32:00,
2013-06-16 17:42:00,86.0,57.0,29.84,NNW,338,0.0,0.0,37,0.00,,,0.04,,2013-06-16 22:42:00,
2013-06-16 17:52:00,85.0,56.0,29.84,NNW,348,0.0,0.0,37,0.00,,,0.04,,2013-06-16 22:52:00,
2013-06-16 18:01:00,85.0,57.0,29.83,North,5,0.0,0.0,38,0.00,,,0.04,,2013-06-16 23:01:00,
2013-06-16 18:11:00,85.0,57.0,29.83,North,5,0.0,0.0,39,0.00,,,0.04,,2013-06-16 23:11:00,
2013-06-16 18:22:00,84.0,57.0,29.83,NNW,327,0.0,0.0,40,0.00,,,0.04,,2013-06-16 23:22:00,
2013-06-16 18:32:00,84.0,56.0,29.83,North,355,0.0,0.0,38,0.00,,,0.04,,2013-06-16 23:32:00,
2013-06-16 18:42:00,84.0,58.0,29.83,North,355,0.0,0.0,41,0.00,,,0.04,,2013-06-16 23:42:00,
2013-06-16 18:52:00,83.0,58.0,29.83,North,355,0.0,0.0,42,0.00,,,0.04,,2013-06-16 23:52:00,
2013-06-16 19:02:00,83.0,55.0,29.83,NNW,348,0.0,0.0,39,0.00,,,0.04,,2013-06-17 00:02:00,
2013-06-16 19:11:00,83.0,58.0,29.83,NNW,346,0.0,0.0,42,0.00,,,0.04,,2013-06-17 00:11:00,
2013-06-16 19:22:00,83.0,55.0,29.83,NNW,346,0.0,0.0,39,0.00,,,0.04,,2013-06-17 00:22:00,
2013-06-16 19:32:00,83.0,57.0,29.83,NNW,346,0.0,0.0,41,0.00,,,0.04,,2013-06-17 00:32:00,
2013-06-16 19:43:00,83.0,57.0,29.83,NNW,346,0.0,0.0,41,0.00,,,0.04,,2013-06-17 00:43:00,
2013-06-16 19:52:00,82.0,57.0,29.83,NNW,346,0.0,0.0,42,0.00,,,0.04,,2013-06-17 00:52:00,
2013-06-16 20:02:00,81.0,56.0,29.83,NNW,346,0.0,0.0,42,0.00,,,0.04,,2013-06-17 01:02:00,
2013-06-16 20:12:00,80.0,57.0,29.83,NNW,346,0.0,0.0,45,0.00,,,0.04,,2013-06-17 01:12:00,
2013-06-16 20:22:00,80.0,57.0,29.83,NNW,346,0.0,0.0,45,0.00,,,0.04,,2013-06-17 01:22:00,
2013-06-16 20:32:00,79.0,56.0,29.83,NNW,346,0.0,0.0,45,0.00,,,0.04,,2013-06-17 01:32:00,
2013-06-16 20:43:00,78.0,57.0,29.83,NNW,346,0.0,0.0,49,0.00,,,0.04,,2013-06-17 01:43:00,
2013-06-16 20:53:00,77.0,57.0,29.83,NNW,346,0.0,0.0,51,0.00,,,0.04,,2013-06-17 01:53:00,
2013-06-16 21:02:00,76.0,58.0,29.83,NNW,346,0.0,0.0,53,0.00,,,0.04,,2013-06-17 02:02:00,
2013-06-16 21:12:00,75.0,58.0,29.84,NNW,346,0.0,0.0,56,0.00,,,0.04,,2013-06-17 02:12:00,
2013-06-16 21:22:00,74.0,59.0,29.84,NNW,346,0.0,0.0,60,0.00,,,0.04,,2013-06-17 02:22:00,
2013-06-16 21:34:00,73.0,58.0,29.84,NNW,346,0.0,0.0,60,0.00,,,0.04,,2013-06-17 02:34:00,
2013-06-16 21:43:00,72.0,58.0,29.85,NNW,346,0.0,0.0,62,0.00,,,0.04,,2013-06-17 02:43:00,
2013-06-16 21:53:00,71.0,58.0,29.85,NNW,346,0.0,0.0,63,0.00,,,0.04,,2013-06-17 02:53:00,
2013-06-16 22:02:00,71.0,59.0,29.85,NNW,346,0.0,0.0,65,0.00,,,0.04,,2013-06-17 03:02:00,
2013-06-16 22:12:00,70.0,58.0,29.86,NNW,346,0.0,0.0,66,0.00,,,0.04,,2013-06-17 03:12:00,
2013-06-16 22:22:00,69.0,58.0,29.87,NNW,346,0.0,0.0,68,0.00,,,0.04,,2013-06-17 03:22:00,
2013-06-16 22:33:00,69.0,59.0,29.87,NNW,346,0.0,0.0,70,0.00,,,0.04,,2013-06-17 03:33:00,
2013-06-16 22:44:00,68.0,58.0,29.87,NNW,346,0.0,0.0,71,0.00,,,0.04,,2013-06-17 03:44:00,
2013-06-16 22:53:00,68.0,59.0,29.88,NNW,346,0.0,0.0,72,0.00,,,0.04,,2013-06-17 03:53:00,
2013-06-16 23:02:00,67.0,58.0,29.88,NNW,346,0.0,0.0,74,0.00,,,0.04,,2013-06-17 04:02:00,
2013-06-16 23:12:00,67.0,59.0,29.88,NNW,346,0.0,0.0,75,0.00,,,0.04,,2013-06-17 04:12:00,
2013-06-16 23:22:00,66.0,58.0,29.87,NNW,346,0.0,0.0,76,0.00,,,0.04,,2013-06-17 04:22:00,
2013-06-16 23:34:00,66.0,59.0,29.87,NNW,346,0.0,0.0,78,0.00,,,0.04,,2013-06-17 04:34:00,
2013-06-16 23:43:00,65.0,58.0,29.86,NNW,346,0.0,0.0,78,0.00,,,0.03,,2013-06-17 04:43:00,
2013-06-16 23:53:00,65.0,58.0,29.86,NNW,346,0.0,0.0,79,0.00,,,0.03,,2013-06-17 04:53:00,